CZ-4C DEB, 42671

Orbit data source: Space-Track

CZ-4C DEB, 42671 is space debris in SSO originally from a launch on Thu, 26 Nov 2015 UTC launched from the Taiyaun Space Center, China (TSC). Debris objects in space refer to the collection of defunct objects orbiting the Earth. Examples of debris include non-operational satellites, rocket bodies, and fragments generated from explosions, collisions, or faulty payload assembly.

Loading next visibility...
Identifier
42671, 2015-069D
Orbit
SSO
Country
Flag of CNCN / PRC
Related business
Manufacturer
Unknown
Mission
Spacecraft
Bus & Motor
Unknown
Mass
Unknown
Launch date (UTC)
2015-11-26 (10 years ago)
Launch vehicle
Unknown
Launch site
Taiyaun Space Center, China (TSC)
Object type
Payload
Rocket body
Debris
Shape & HBR
Unknown shape, 0.1 m
Radar Cross Section
Small (<0.1 m²)

Expand to show TLE details & history
Last TLE update: 16 hours ago

TLE from 16 hours ago
0 CZ-4C DEB
1 42671U 15069D   25308.88771517  .00006031  00000-0  81540-3 0  9994
2 42671  97.8096 172.7151 0118810  18.0276 342.5092 14.74546182523409
Epoch: 2025-11-04T21:18Z
TLE epoch observation values (Epoch: 2025-11-04T21:18:18.590Z)
Latitude
-0.00003°
Longitude
168.76936°
Altitude
570.082 km
Speed
7.619 km/s
True Right ascension
11h 30m 51s
True Declination
0° 00' 00"
Sunlit
Object was in daylight at epoch
Visualization orbit readout
Latitude
Unknown
Longitude
Unknown
Altitude
Unknown
Speed
Unknown
Apparent Right ascension
Unknown
Apparent Declination
Unknown
Sunlit
N/A
Visualization observer readout
Local Sidereal Time
09:12:32
Azimuth
Unknown
Elevation
Unknown
Doppler factor
Unknown
Orbital elements
Apogee altitude
727.061 km
Perigee altitude
560.21 km
Semi-major axis
7,021.773 km
Eccentricity
0.01188
Inclination
97.8096°
RAAN
172.7151°
Arg. of periapsis
18.0276°
True anomaly
342.09414°
Mean anomaly
342.5092°
Eccentric anomaly
342.30226°
Mean motion
3.6887 °/min
Orbital period
97.6 mins
BSTAR
0.0008154
Loading maneuver chart data...
Computing Atmospheric mass density...
Loading historical data...
Loading historical data...
Loading historical data...
Loading historical data...
Loading historical data...
Loading historical data...
Loading historical data...
Other satellites on launch #69 in the year 2015 (2015-11-26 UTC)

Documentation

Showing up to 5 results
|